This is the latest recevied weather packets stored in our database for station/object W0BJ. If no packets are shown the sender has not sent any weather packets the latest 10 day(s).
| Time | Temp. | Humidity | Pressure | Rain* | Wind** | Luminosity | Snow |
|---|---|---|---|---|---|---|---|
| 1778013145 | 8.89° C | 88% | 1013.2 hPa | 2.03 mm | - | - | - |
| 1778012599 | 8.89° C | 90% | 1013.8 hPa | 2.29 mm | - | - | - |
| 1778012545 | 8.89° C | 90% | 1013.8 hPa | 2.29 mm | - | - | - |
| 1778011944 | 8.89° C | 88% | 1013.7 hPa | 1.78 mm | - | - | - |
| 1778011698 | 8.89° C | 88% | 1013.3 hPa | 1.27 mm | - | - | - |
| 1778011344 | 8.89° C | 88% | 1013.4 hPa | 1.27 mm | - | - | - |
| 1778010798 | 8.89° C | 87% | 1013.5 hPa | 1.27 mm | - | - | - |
| 1778010744 | 8.89° C | 87% | 1013.5 hPa | 1.27 mm | - | - | - |
| 1778010144 | 8.89° C | 86% | 1014 hPa | 1.27 mm | - | - | - |
| 1778009898 | 9.44° C | 85% | 1013.9 hPa | 1.52 mm | - | - | - |
| 1778009544 | 9.44° C | 86% | 1014.2 hPa | 1.02 mm | - | - | - |
| 1778008998 | 8.89° C | 84% | 1014.2 hPa | 1.27 mm | - | - | - |
| 1778008943 | 8.89° C | 84% | 1014.2 hPa | 1.27 mm | - | - | - |
| 1778008343 | 9.44° C | 84% | 1014.2 hPa | 2.03 mm | - | - | - |
| 1778008097 | 9.44° C | 83% | 1014.2 hPa | 2.29 mm | - | - | - |
| 1778007745 | 9.44° C | 83% | 1014 hPa | 2.29 mm | - | - | - |
| 1778007199 | 9.44° C | 83% | 1013.8 hPa | 2.03 mm | - | - | - |
| 1778007145 | 9.44° C | 83% | 1013.8 hPa | 2.03 mm | - | - | - |
| 1778006545 | 10° C | 81% | 1013.5 hPa | 2.03 mm | - | - | - |
| 1778006299 | 10° C | 80% | 1013.6 hPa | 1.78 mm | - | - | - |
| 1778005944 | 10° C | 79% | 1013.9 hPa | 1.78 mm | - | - | - |
| 1778005398 | 10.56° C | 79% | 1013.8 hPa | 1.27 mm | - | - | - |
| 1778005344 | 10.56° C | 79% | 1013.8 hPa | 1.27 mm | - | - | - |
| 1778004744 | 11.11° C | 76% | 1013.7 hPa | 0.51 mm | - | - | - |
| 1778004498 | 11.11° C | 74% | 1013.8 hPa | 0.25 mm | - | - | - |
* Rain latest hour (hover to see other rain measurements)
** Current wind speed in m/s (hover to see current wind gust speed)